STARLINK AV

Last updated on June 19, 2020, 12:02 a.m. UTC

1 45773U 20038AV  20170.75001157  .00113985  11275-4  14154-3 0  9990
2 45773  52.9997 271.8079 0111339  69.5852 147.4012 15.96152918  1980

Satellite is not in orbit.